<?xml version="1.0" encoding="UTF-8" standalone="no" ?>
<gpx xmlns="http://www.topografix.com/GPX/1/1" xmlns:xsi="http://www.w3.org/2001/XMLSchema-instance" xsi:schemaLocation="http://www.topografix.com/GPX/1/1 http://www.topografix.com/GPX/1/1/gpx.xsd" version="1.1" creator="VisuGPX - https://www.visugpx.com">
  <metadata>
    <name>Au coeur de Villeneuve l'Archevêque</name>
    <desc><![CDATA[Visite de la ville de Villeneuve l'Archevêque (mais non son église). A la découverte du passé des rues et des maisons]]></desc>
  </metadata>
  <trk>
    <name><![CDATA[track]]></name>
    <trkseg>
      <trkpt lat="48.23316" lon="3.5575">
        <ele>106</ele>
        <time>2008-01-22T00:00:00Z</time>
      </trkpt>
      <trkpt lat="48.23326" lon="3.55756">
        <ele>107</ele>
        <time>2008-01-22T00:00:00Z</time>
      </trkpt>
      <trkpt lat="48.23314" lon="3.5583">
        <ele>106</ele>
        <time>2008-01-22T00:00:00Z</time>
      </trkpt>
      <trkpt lat="48.23343" lon="3.55838">
        <ele>107</ele>
        <time>2008-01-22T00:00:00Z</time>
      </trkpt>
      <trkpt lat="48.23341" lon="3.55866">
        <ele>107</ele>
        <time>2008-01-22T00:00:00Z</time>
      </trkpt>
      <trkpt lat="48.23327" lon="3.55971">
        <ele>105</ele>
        <time>2008-01-22T00:00:00Z</time>
      </trkpt>
      <trkpt lat="48.23311" lon="3.56027">
        <ele>104</ele>
        <time>2008-01-22T00:00:00Z</time>
      </trkpt>
      <trkpt lat="48.23266" lon="3.56011">
        <ele>103</ele>
        <time>2008-01-22T00:00:00Z</time>
      </trkpt>
      <trkpt lat="48.2326" lon="3.55781">
        <ele>105</ele>
        <time>2008-01-22T00:00:00Z</time>
      </trkpt>
      <trkpt lat="48.23319" lon="3.55633">
        <ele>104</ele>
        <time>2008-01-22T00:00:00Z</time>
      </trkpt>
      <trkpt lat="48.2336" lon="3.55645">
        <ele>105</ele>
        <time>2008-01-22T00:00:00Z</time>
      </trkpt>
      <trkpt lat="48.23364" lon="3.55608">
        <ele>105</ele>
        <time>2008-01-22T00:00:00Z</time>
      </trkpt>
      <trkpt lat="48.23373" lon="3.556">
        <ele>105</ele>
        <time>2008-01-22T00:00:00Z</time>
      </trkpt>
      <trkpt lat="48.23503" lon="3.55625">
        <ele>106</ele>
        <time>2008-01-22T00:00:00Z</time>
      </trkpt>
      <trkpt lat="48.23504" lon="3.55694">
        <ele>107</ele>
        <time>2008-01-22T00:00:00Z</time>
      </trkpt>
      <trkpt lat="48.2368" lon="3.5575">
        <ele>111</ele>
        <time>2008-01-22T00:00:00Z</time>
      </trkpt>
      <trkpt lat="48.23686" lon="3.5567">
        <ele>109</ele>
        <time>2008-01-22T00:00:00Z</time>
      </trkpt>
      <trkpt lat="48.2367" lon="3.55901">
        <ele>112</ele>
        <time>2008-01-22T00:00:00Z</time>
      </trkpt>
      <trkpt lat="48.23391" lon="3.55799">
        <ele>107</ele>
        <time>2008-01-22T00:00:00Z</time>
      </trkpt>
      <trkpt lat="48.23351" lon="3.55782">
        <ele>107</ele>
        <time>2008-01-22T00:00:00Z</time>
      </trkpt>
      <trkpt lat="48.23342" lon="3.55839">
        <ele>107</ele>
        <time>2008-01-22T00:00:00Z</time>
      </trkpt>
      <trkpt lat="48.23315" lon="3.55829">
        <ele>106</ele>
        <time>2008-01-22T00:00:00Z</time>
      </trkpt>
      <trkpt lat="48.23325" lon="3.55757">
        <ele>107</ele>
        <time>2008-01-22T00:00:00Z</time>
      </trkpt>
      <trkpt lat="48.23316" lon="3.5575">
        <ele>106</ele>
        <time>2008-01-22T00:00:00Z</time>
      </trkpt>
    </trkseg>
  </trk>
</gpx>